Regional Weather Roundup
Issued by NWS

Home | Current Version | Previous Version | Text Only | Print | Product List | Glossary Off
Versions: 1 2 3 4 5 6 7 8 9 10 11 12 13 14 15 16 17 18 19 20 21 22 23 24 25 26 27 28 29 30 31 32 33 34 35 36 37 38 39 40 41 42 43 44 45 46 47 48 49 50

000
ASUS44 KMEG 280900
RWRTN
TENNESSEE HOURLY STATE WEATHER ROUNDUP
NATIONAL WEATHER SERVICE MEMPHIS TN
400 AM CDT THU APR 28 2016

TNZ002-004-019-021-049-052-054-088>092-281000-
WEST TENNESSEE

CITY           SKY/WX    TMP DP  RH WIND       PRES   REMARKS
MEMPHIS INTL   CLEAR     68  64  87 SW7       29.78R
NWS MEMPHIS      N/A     67 N/A N/A MISG        N/A
JACKSON        CLEAR     66  64  93 S9        29.78R
DYERSBURG      PTCLDY    66  63  88 W6        29.78R
UNION CITY     CLEAR     64  64 100 CALM      29.75S
LEXINGTON      MOCLDY    66  66 100 S5        29.78S
$$

TNZ008-025-027-028-033-062-065-066-281000-
NORTH MIDDLE TENNESSEE

CITY           SKY/WX    TMP DP  RH WIND       PRES   REMARKS
NASHVILLE      MOCLDY    67  62  84 SW7       29.80R
CLARKSVILLE    MOCLDY    64  62  93 CALM      29.77S FOG
COOKEVILLE     MOCLDY    64  63  94 SW7       29.81S
CROSSVILLE     CLOUDY    64  60  87 VRB5      29.86R
$$

TNZ061-075-076-078-094-096-097-281000-
SOUTH MIDDLE TENNESSEE

CITY           SKY/WX    TMP DP  RH WIND       PRES   REMARKS
TULLAHOMA      CLOUDY    64  64 100 SW10      29.84S
WINCHESTER     MOCLDY    68  63  83 SW5       29.84R
MCMINNVILLE    CLOUDY    66  66 100 SW6       29.83R
COLUMBIA       CLOUDY   N/A N/A N/A SW8       29.80R
SHELBYVILLE    CLOUDY    68  66  94 SW8       29.83R
$$

TNZ017-018-042-046-047-281000-
NORTHEAST TENNESSEE

CITY           SKY/WX    TMP DP  RH WIND       PRES   REMARKS
TRI CITIES     LGT RAIN  61  60  97 E3        29.91R
$$

TNZ012-013-036-069-073-074-281000-
CENTRAL EAST TENNESSEE

CITY           SKY/WX    TMP DP  RH WIND       PRES   REMARKS
KNOXVILLE      CLOUDY    64  63  96 E3        29.84R FOG
OAK RIDGE      CLOUDY    64  62  93 CALM      29.85R FOG
GATLINBURG     MOSUNNY   61  61 100 CALM      29.85S
$$

TNZ083-085-099-281000-
SOUTHEAST TENNESSEE

CITY           SKY/WX    TMP DP  RH WIND       PRES   REMARKS
CHATTANOOGA    MOCLDY    64  61  90 CALM      29.85R
$$

SKY/WX REPORTED AS FAIR MEANS FEW OR NO CLOUDS BELOW
12 THOUSAND FEET.




USA.gov is the U.S. government's official web portal to all federal, state and local government web resources and services.